Powrót do katalogu

STARLINK-4155

AktywnyŁącznośćVLEO
NORAD 53036·PAYLOAD·🇺🇸 United States

Wystrzelony Jul 7, 2022 z Cape Canaveral Space Force Station

Loading…

Następne Przeloty (najbliższe 24 godziny)

TLE

ŚwieżeSource: CelesTrak SupGP

Epoka: Sep 14, 2026, 21:51 UTC

1 53036C 22076BC  26257.91090278  .00683190  00000+0  22157-1 0  2573
2 53036  53.1601 301.0537 0001159  88.9382 280.3479 15.31089849    10

Śledź STARLINK-4155 w czasie rzeczywistym z AllMySat

Download on the App Store